Location: Eexterzandvoort
(53.0303°N, 6.7884°E)
Time: 00:00:17
(UTC+00:00)

Cosmos 2058 Rocket - Pass Details

Date: 19 May 2025
Orbit: 604 x 634 km, 82.5° (Epoch: 22 June)

Event Time Altitude Azimuth Distance (km) Brightness Sun altitude
Rises 20:38:04 0° 194° (SSW) 2,919 6.2 -8.2°
Reaches altitude 10° 20:40:18 10° 196° (SSW) 2,013 5.4 -8.4°
Maximum altitude 20:44:47 74° 282° (WNW) 661 3.3 -8.8°
Drops below altitude 10° 20:49:15 10° 8° (N) 2,016 6.4 -9.2°
Sets 20:51:30 0° 11° (N) 2,923 7.2 -9.4°
